GFSSE_850_temp_138.txt.gz
Temp
21 24 24 23 22 21 20 20 20 20 20 20 20 19 19 18 18 18 18 18 18 18 18 17 17 17 17 16 16 16 16 16 16 16 16 16 16 14 14 14 15 15 15
21 25 24 23 22 21 21 20 20 19 19 19 19 19 19 18 18 18 18 18 18 18 17 17 17 16 16 16 16 16 16 16 16 16 16 17 16 16 14 13 14 15 15
20 23 23 22 22 21 21 20 20 19 19 19 19 19 18 18 18 18 18 18 17 17 17 17 16 16 16 16 16 16 16 16 16 16 16 16 15 15 15 14 14 14 14
19 22 23 22 21 21 21 20 19 19 18 18 18 18 18 18 18 17 17 17 17 17 16 16 16 16 16 16 15 16 15 15 15 16 14 13 15 14 14 14 14 14 14
18 18 22 22 21 21 21 20 19 19 18 18 18 18 18 18 17 17 17 17 17 17 16 16 16 16 16 16 15 16 15 15 15 15 14 13 14 14 14 14 14 14 14
19 18 19 20 21 21 21 20 19 19 18 18 18 18 18 17 17 17 17 17 17 16 16 16 16 16 16 16 16 16 16 15 15 15 14 15 14 14 14 14 14 14 14
19 17 21 20 20 21 21 21 20 19 18 18 17 17 17 17 17 17 17 17 16 16 16 16 16 16 16 16 16 15 16 15 14 14 13 14 14 14 14 14 14 14 14
21 21 21 20 20 20 20 20 20 19 19 18 17 17 17 17 17 17 17 17 16 16 15 15 15 16 15 15 16 15 15 15 14 14 14 14 14 14 14 14 14 13 13
20 21 21 20 20 20 19 19 19 18 18 18 17 17 16 16 16 16 16 16 16 16 16 16 15 15 15 15 15 15 14 15 15 14 14 14 14 14 14 14 13 13 13
19 21 21 20 21 20 19 18 18 18 17 18 17 17 16 16 16 16 16 16 16 15 15 15 15 15 15 15 15 15 15 15 14 13 14 14 14 14 14 14 13 13 13
16 18 20 20 20 20 19 18 17 17 16 16 17 16 16 15 15 16 16 16 15 15 15 15 14 14 15 15 15 14 14 14 13 13 14 14 14 14 14 14 13 13 13
17 16 18 20 20 20 19 19 18 16 16 15 15 16 15 14 14 14 16 15 15 15 15 14 14 14 14 14 14 14 13 13 13 14 13 14 14 14 14 14 14 13 13
18 16 17 19 20 20 20 19 18 17 16 14 14 14 14 14 14 14 15 15 15 14 14 14 14 14 14 14 13 14 13 13 14 13 13 14 13 13 13 13 13 13 13
17 17 16 16 19 20 20 19 18 17 17 17 16 14 14 14 13 14 14 14 13 13 14 13 13 13 14 14 14 14 13 13 13 14 13 13 13 13 13 13 13 13 12
17 17 17 15 16 19 19 20 19 18 17 17 17 16 14 14 14 14 14 14 14 14 14 13 13 13 13 13 13 13 13 13 13 13 13 13 13 13 13 13 13 12 11
17 17 17 16 15 15 19 20 20 19 18 18 17 17 16 14 14 14 14 14 14 13 13 13 13 13 13 13 14 13 13 13 13 13 13 13 12 12 12 12 12 11 11
15 16 16 16 15 14 14 16 20 20 19 19 18 18 17 15 16 17 15 14 13 13 13 13 12 14 13 12 13 13 13 13 13 13 13 13 12 12 12 12 12 11 11
14 14 14 15 16 15 14 14 14 18 20 19 18 19 18 17 15 17 15 14 13 13 13 12 13 14 14 14 12 13 14 13 13 13 12 12 12 11 11 11 11 11 11
14 14 14 14 14 15 14 14 14 14 17 20 19 20 19 18 17 16 15 15 15 13 12 13 14 14 14 14 14 14 13 13 12 12 13 12 12 11 11 11 11 11 11
13 13 13 13 13 15 16 14 14 14 14 15 15 19 20 19 18 16 14 16 16 14 12 12 14 13 12 14 14 13 13 13 13 12 12 12 11 11 11 11 11 11 11
12 12 13 13 13 13 15 15 14 15 14 14 15 18 18 19 18 18 14 15 17 16 16 15 14 12 13 12 12 12 12 13 13 12 12 11 12 11 10 10 11 10 11
10 11 12 12 13 13 14 15 15 14 15 14 14 17 18 19 19 18 17 16 17 16 16 15 13 12 12 12 12 12 11 11 11 11 12 12 11 11 11 10 10 11 10
8 11 12 13 13 13 14 15 14 13 13 14 14 14 17 18 19 18 17 17 17 16 16 16 13 12 12 12 12 13 13 14 12 10 11 11 11 11 11 11 11 10 10
5 6 10 12 12 13 13 15 15 14 13 14 14 14 17 18 18 19 17 16 17 16 16 16 14 12 12 12 12 12 14 15 14 11 10 10 11 11 11 12 12 11 10
3 3 6 11 12 13 13 13 15 14 14 16 14 13 13 17 18 18 18 17 17 17 16 16 15 13 12 13 11 12 13 12 13 14 13 11 12 12 10 12 12 11 10
2 3 6 10 12 12 12 13 14 14 14 15 14 13 14 17 19 18 17 17 18 17 16 16 16 15 13 12 12 12 12 12 13 13 14 13 11 12 12 12 12 11 11

GFSSE_850_temp_141.txt.gz
Temp
25 23 23 23 22 21 21 20 20 20 20 20 20 19 19 19 19 19 18 18 18 18 17 17 17 17 17 17 17 16 16 17 17 17 15 16 16 16 17 16 13 14 14
23 22 23 22 22 21 21 20 20 20 20 20 19 19 19 18 18 18 18 18 17 17 17 17 17 16 16 16 16 16 16 16 15 15 15 16 16 16 16 15 13 14 14
22 20 22 22 22 21 21 20 20 20 20 20 19 19 19 18 18 18 18 17 17 17 17 16 16 16 16 16 16 16 16 15 15 15 15 14 15 15 15 15 14 14 14
21 19 22 21 21 21 20 20 20 20 19 19 19 19 18 18 18 18 18 17 17 17 16 16 16 16 16 16 16 16 15 16 16 15 15 14 15 15 14 14 14 14 14
21 20 18 21 20 20 20 20 20 20 19 19 19 18 18 18 18 17 17 17 16 16 16 16 16 16 16 16 16 16 15 16 15 15 15 14 15 15 14 14 14 14 14
21 20 19 20 20 20 19 19 19 19 19 18 18 18 18 18 17 17 17 17 17 16 16 16 16 16 16 16 16 16 15 15 15 15 14 15 15 15 14 14 14 14 14
20 20 18 20 20 19 19 19 19 19 19 18 18 18 17 17 17 17 17 17 17 16 16 16 16 16 15 16 16 16 16 16 16 15 14 15 15 15 14 14 14 14 14
19 19 17 19 19 19 19 18 18 18 18 18 17 18 17 17 17 16 16 16 16 16 16 16 16 16 15 15 16 16 16 15 14 15 14 15 14 14 14 14 14 14 14
17 17 17 19 19 19 19 18 19 18 17 18 17 17 17 17 17 16 16 16 16 16 16 16 16 16 15 15 16 16 15 15 15 15 14 14 14 14 14 14 14 14 14
18 17 17 16 20 19 19 19 19 18 17 17 17 16 16 16 16 16 16 16 16 16 16 16 16 15 15 15 15 15 15 15 14 14 14 15 14 14 14 14 14 14 13
18 17 17 17 16 16 19 19 19 18 18 17 16 16 16 15 16 16 16 15 15 15 15 15 16 15 15 14 15 15 14 15 14 14 14 14 14 14 14 14 14 13 13
20 19 17 16 16 15 18 20 20 18 17 17 16 15 16 14 15 15 14 15 15 15 15 15 15 15 15 14 14 14 15 14 15 15 14 15 14 14 14 14 13 13 13
20 19 18 17 16 16 16 18 20 18 15 15 14 14 14 15 15 14 14 15 15 14 14 14 14 14 15 14 14 14 14 15 15 14 14 14 14 14 14 13 13 13 13
19 19 19 17 17 16 16 16 16 17 19 15 15 14 14 14 15 15 15 14 14 14 14 14 13 13 14 14 14 14 14 15 15 14 14 14 13 13 14 13 13 13 13
18 18 18 17 17 16 15 17 16 15 19 19 16 14 14 14 15 15 16 15 15 15 15 15 14 14 14 14 13 13 14 14 14 14 13 14 13 13 13 13 13 13 13
17 17 17 17 17 17 16 15 16 15 15 19 19 17 15 15 15 15 15 15 16 16 16 15 14 14 14 13 14 13 13 14 14 14 13 13 13 13 13 13 13 12 12
17 17 16 16 16 17 16 16 15 16 15 15 19 19 17 15 15 15 15 15 16 16 15 15 14 14 14 14 13 13 13 14 14 14 13 13 13 12 13 12 12 12 12
16 15 14 15 15 15 16 16 16 16 16 15 15 19 19 16 15 15 15 15 15 15 14 14 14 14 14 14 14 14 13 13 13 13 12 13 13 13 12 12 11 11 11
14 14 13 12 13 14 15 16 16 16 16 16 15 16 19 19 15 15 15 15 15 15 14 14 13 13 13 14 15 14 13 13 13 13 12 12 13 13 12 12 11 11 11
12 11 11 11 12 13 13 14 15 15 15 16 16 16 16 20 18 15 15 15 14 14 14 13 13 13 13 13 13 12 13 12 13 13 12 12 12 13 12 11 11 12 11
9 8 9 9 10 12 13 13 14 15 15 15 16 16 16 18 19 17 16 15 15 14 14 13 13 13 13 13 13 12 12 12 12 13 12 12 11 12 12 12 12 11 11
5 4 5 6 7 9 13 14 14 15 15 15 15 16 16 17 18 17 17 15 15 14 14 13 13 13 14 14 13 12 11 11 12 12 12 12 12 12 12 11 11 11 11
2 3 3 3 4 7 10 14 14 15 16 15 15 15 15 15 16 15 17 15 16 15 15 14 14 14 13 13 13 13 14 14 14 11 11 12 11 11 12 11 11 11 11
1 0 -0 1 2 5 10 11 14 15 16 16 14 14 15 14 15 15 15 15 16 17 15 16 16 14 13 13 13 14 15 16 15 13 12 11 11 12 11 11 11 11 11
-1 -1 -1 1 2 3 8 10 14 14 16 16 15 14 15 14 14 15 14 14 16 17 17 17 16 14 14 13 13 13 14 14 15 16 14 11 11 11 11 11 11 11 12
-2 -2 -1 1 3 4 7 10 14 14 15 16 15 14 14 14 14 13 15 13 14 17 17 17 17 15 14 14 13 13 14 14 14 15 15 15 13 12 13 11 11 11 11

GFSSE_850_temp_144.txt.gz
Temp
23 23 24 24 23 22 22 22 21 21 21 21 20 20 19 19 19 19 19 19 18 18 17 17 17 17 17 16 16 17 17 16 16 16 16 16 15 15 15 15 14 15 13
22 22 23 23 22 22 21 21 21 21 21 21 20 20 19 19 19 18 19 18 18 17 17 17 16 16 16 16 16 16 16 16 16 15 15 16 15 15 14 14 15 15 13
21 22 22 22 21 21 20 20 20 20 20 20 20 20 19 18 18 18 18 18 18 17 16 17 16 16 16 16 16 16 16 16 15 15 15 15 15 15 15 15 15 14 13
21 21 21 22 21 21 20 20 20 19 19 20 20 19 19 18 18 18 17 17 17 17 17 16 16 16 16 16 16 16 16 16 15 15 15 15 15 15 15 14 14 14 14
22 20 21 21 21 20 20 20 19 19 19 19 19 19 19 18 18 17 17 17 17 17 16 16 16 16 16 16 16 15 15 16 15 14 14 15 15 15 15 14 14 14 14
21 21 20 19 19 20 19 19 19 18 18 19 19 18 18 18 17 17 17 17 16 16 16 16 16 16 16 16 16 15 15 15 15 15 14 15 15 15 15 14 14 14 14
20 20 20 19 19 19 19 19 19 18 18 18 18 18 17 17 17 17 17 17 16 16 16 16 16 16 16 16 16 16 15 16 15 14 15 15 14 14 14 14 14 14 14
20 19 18 19 19 19 19 19 18 18 18 18 18 17 17 17 17 17 16 16 16 16 16 16 16 16 16 16 16 16 16 15 14 14 14 15 14 15 14 14 14 14 14
18 18 17 18 20 19 19 18 18 18 18 18 17 17 17 17 16 16 16 16 16 16 15 15 15 16 16 16 16 16 15 14 14 14 13 15 14 14 14 14 14 14 14
19 18 17 17 18 19 19 18 18 18 18 18 18 17 17 16 16 16 16 16 16 16 16 15 15 15 16 15 15 15 15 14 14 14 15 16 15 14 14 14 14 14 13
20 19 18 17 17 17 18 19 18 18 19 18 18 17 17 16 16 16 16 15 15 16 15 15 15 15 15 15 15 15 15 15 14 13 15 15 14 14 14 14 14 14 13
20 20 18 17 17 16 16 16 18 18 19 19 18 18 17 16 15 16 16 15 15 15 15 15 15 15 15 15 15 15 15 14 14 13 15 14 14 14 14 14 14 13 13
19 19 19 18 17 16 16 16 16 18 18 19 19 17 17 16 15 15 15 14 15 15 15 15 15 15 14 14 15 15 15 15 15 13 14 14 14 14 14 14 13 13 13
18 18 18 18 18 17 16 16 16 17 16 17 19 18 16 16 15 15 15 15 15 15 14 15 15 15 14 14 14 15 14 14 13 15 13 13 13 14 14 14 14 13 12
17 17 17 17 17 17 16 16 16 16 16 16 15 18 18 16 16 16 15 15 15 15 15 14 15 15 14 14 14 14 15 15 13 14 14 13 13 13 13 14 14 13 13
17 16 16 15 15 16 16 16 16 16 16 16 16 16 18 17 16 15 15 15 15 15 16 15 15 14 15 14 14 14 15 15 14 14 14 14 13 14 13 13 13 13 12
16 15 14 13 13 14 14 15 16 16 16 15 16 17 17 18 16 16 15 15 15 16 16 15 15 14 14 14 14 14 14 15 14 14 14 14 14 14 13 13 13 13 13
12 12 12 13 13 13 14 14 14 16 16 16 15 16 18 18 17 15 15 15 15 16 16 16 15 15 14 14 14 15 14 14 14 14 14 14 14 13 13 13 13 12 12
11 12 13 12 11 10 10 12 13 15 15 15 15 15 17 19 17 16 15 15 15 15 16 15 15 15 14 14 14 14 14 14 14 13 13 13 13 13 13 13 12 12 11
11 12 12 13 12 8 7 11 12 13 15 15 15 15 15 17 19 17 15 15 15 15 15 15 14 14 14 14 13 14 14 13 13 13 13 12 12 13 13 12 12 12 12
7 7 7 7 8 8 7 6 10 10 13 15 15 14 15 15 17 19 16 15 15 15 15 14 14 14 14 14 13 13 13 13 12 13 12 12 12 12 12 12 12 12 12
4 3 5 5 2 5 4 4 7 9 11 13 15 15 14 15 16 17 18 16 15 15 15 14 15 14 14 14 13 13 12 12 12 12 12 12 12 11 11 12 12 12 11
3 2 2 1 3 2 2 3 6 10 10 12 14 15 16 14 16 16 18 16 16 15 15 15 15 14 14 13 13 14 12 12 13 13 13 12 12 11 12 12 12 11 11
2 1 0 -0 0 1 2 2 3 4 8 12 14 15 15 16 14 17 16 17 15 15 15 15 15 15 15 14 13 14 14 15 14 12 12 12 12 12 11 11 12 11 11
0 -0 1 0 -2 0 1 1 3 4 7 11 12 14 15 17 13 15 15 16 15 15 15 16 15 14 15 14 14 14 14 15 15 15 13 12 12 12 12 12 12 11 11
0 0 -1 -1 -1 -0 1 2 2 3 5 9 12 14 15 16 14 13 14 15 14 15 14 16 17 17 15 14 14 14 14 14 14 15 15 14 14 13 13 12 11 11 11

GFSSE_850_temp_147.txt.gz
Temp
23 22 22 23 22 22 22 21 21 21 21 21 21 20 20 19 19 19 19 19 18 18 17 17 17 17 16 16 16 16 16 16 16 16 16 16 15 15 15 15 15 14 14
22 22 21 22 22 22 21 21 21 21 21 20 20 20 19 19 19 19 19 18 18 17 17 17 17 17 16 16 16 16 16 16 16 16 16 15 15 15 15 15 15 14 14
21 21 21 21 22 21 21 21 21 20 20 20 20 20 19 19 18 18 18 18 17 17 17 16 16 16 16 16 16 16 16 16 16 16 15 15 15 15 15 15 14 15 14
21 20 21 21 21 21 20 20 20 20 19 19 19 19 19 18 18 18 18 18 17 17 17 16 16 16 16 16 16 16 16 16 16 15 15 15 15 15 15 15 14 14 14
20 21 20 21 21 21 20 20 20 19 19 19 19 19 19 18 17 17 17 17 17 16 16 16 16 16 16 16 16 16 15 15 15 15 15 15 15 16 15 15 14 14 14
19 20 20 20 20 20 19 19 19 19 19 19 18 18 18 18 17 17 17 17 17 16 16 16 16 16 15 15 15 15 15 15 14 14 15 15 15 15 15 15 14 14 14
20 19 19 19 19 19 19 19 19 19 18 18 18 18 18 17 17 17 16 16 16 16 16 16 16 15 15 15 15 15 15 14 14 14 14 14 14 15 15 15 14 14 14
19 18 18 18 19 19 19 19 19 18 18 18 18 18 18 17 17 17 16 16 16 16 16 16 16 15 15 15 15 15 14 14 14 14 14 14 14 14 15 15 14 14 14
20 18 18 18 18 18 18 19 19 19 18 18 18 18 18 17 17 17 16 16 16 16 16 16 15 15 15 15 15 15 15 15 14 14 15 14 14 14 14 14 14 14 14
19 19 18 17 17 17 17 18 18 19 19 19 19 18 18 17 17 16 16 16 16 16 15 16 15 15 15 15 15 15 15 15 15 15 15 14 13 14 14 14 14 14 14
19 18 17 17 17 17 17 17 17 17 18 19 19 19 18 17 17 16 16 16 16 16 15 15 15 15 15 15 15 15 15 14 15 15 15 14 14 14 14 14 14 14 13
18 18 18 17 16 16 17 17 16 16 16 17 18 18 18 18 17 17 16 16 16 16 16 15 15 15 15 15 15 15 14 14 14 14 14 13 14 14 14 14 13 13 13
17 17 17 17 17 16 15 15 16 17 16 17 17 18 18 18 17 16 16 16 16 15 15 15 15 15 15 14 15 14 14 13 14 14 13 12 13 14 14 13 14 13 13
16 15 16 16 16 17 16 15 14 15 16 16 16 17 17 18 18 16 15 15 15 15 15 15 15 15 14 14 14 14 14 14 14 14 14 14 13 14 14 14 13 13 13
15 14 15 15 16 15 15 16 15 15 14 16 16 16 16 17 17 17 16 15 15 15 15 15 15 15 15 14 14 13 14 14 14 15 15 13 13 13 14 14 13 13 13
14 14 13 14 14 15 15 15 15 15 15 14 15 16 16 15 16 16 16 15 15 15 16 16 15 15 15 14 13 14 14 14 14 15 15 14 14 14 14 14 14 13 13
13 13 14 13 13 14 14 14 15 15 15 14 14 15 16 16 15 16 16 15 15 15 16 16 15 15 15 14 14 14 14 14 14 15 14 14 14 14 13 13 13 13 13
14 14 13 13 13 14 14 14 15 16 16 16 15 13 15 16 16 15 16 16 15 15 15 16 16 15 15 14 14 14 14 14 14 14 14 14 14 14 13 13 13 12 12
12 12 12 12 11 11 11 12 12 14 15 16 16 15 13 14 15 16 15 16 16 15 15 16 16 15 15 14 14 14 14 14 14 14 14 14 14 14 14 13 13 12 12
11 11 10 12 12 12 11 11 10 11 12 13 14 15 15 13 14 16 15 15 15 15 15 15 15 15 15 15 14 14 14 13 13 13 13 14 13 13 13 13 12 12 11
10 9 9 8 9 9 10 9 10 10 10 11 12 14 15 14 13 14 16 15 15 16 15 15 15 15 15 14 13 13 13 13 13 13 12 13 13 13 13 13 12 12 11
7 7 7 6 6 5 6 7 6 6 7 8 10 12 14 14 14 14 14 15 15 15 16 15 15 15 14 14 13 13 12 12 12 13 13 12 13 13 12 12 12 12 11
6 5 5 5 4 3 4 4 3 2 5 7 7 9 11 13 15 14 14 14 15 14 16 15 15 15 14 14 14 13 12 13 12 12 12 12 12 12 12 12 12 12 12
5 4 4 3 2 0 -0 0 -1 -0 1 3 5 8 10 11 12 14 14 14 14 14 15 17 15 15 14 14 13 13 14 16 13 12 12 12 12 12 12 12 11 12 12
3 2 2 2 2 1 -1 -1 -1 0 1 2 3 6 9 10 12 12 13 13 13 14 14 16 15 14 15 15 15 13 14 15 15 15 13 12 11 12 12 12 12 11 12
3 2 2 2 2 0 -1 -2 -1 -0 1 2 3 3 7 9 10 12 12 13 13 11 13 15 17 15 15 15 15 15 13 14 14 15 15 14 14 14 13 12 12 12 12

GFSSE_850_temp_150.txt.gz
Temp
21 21 21 22 21 22 22 22 21 21 21 21 20 20 20 19 19 19 19 19 19 18 17 17 16 16 16 16 16 16 17 16 16 16 16 15 15 15 14 14 14 14 14
21 21 21 21 21 21 22 21 21 21 21 20 20 20 20 19 19 18 18 18 18 18 17 17 16 16 16 16 16 17 17 16 16 16 16 16 14 14 14 15 14 15 14
21 20 20 20 20 20 21 21 21 21 20 20 20 19 19 19 18 18 18 18 18 17 17 17 16 16 16 16 16 16 16 16 16 15 15 16 15 14 14 15 15 14 14
20 20 20 20 20 20 21 21 20 20 20 20 19 19 19 19 18 18 18 18 17 17 17 17 16 16 15 16 16 16 16 15 15 15 15 15 15 14 14 14 14 14 14
20 19 19 19 19 20 20 20 20 19 19 19 19 19 19 18 18 17 17 17 17 16 16 16 16 16 16 16 16 15 15 15 15 15 14 15 15 14 14 14 14 14 14
19 19 18 18 19 19 19 20 19 19 19 19 19 19 18 18 18 17 17 17 17 16 16 16 16 16 16 16 15 15 15 15 15 15 15 14 14 14 14 15 15 14 14
19 18 18 18 18 18 19 19 19 19 19 18 18 18 18 18 17 17 17 17 17 16 16 16 15 16 16 15 15 14 14 15 15 15 15 14 14 15 14 14 14 14 14
19 18 18 17 17 17 18 18 18 18 18 18 18 18 18 17 17 17 17 17 16 16 16 15 15 15 16 15 15 14 14 14 14 15 15 15 14 14 14 14 15 14 14
17 17 17 17 16 17 17 17 17 17 18 18 18 18 17 17 17 17 17 16 16 16 16 16 15 15 15 15 15 14 14 14 14 15 15 15 15 14 14 14 14 14 13
17 16 16 16 16 16 17 17 17 17 17 17 17 17 18 17 17 17 17 16 16 16 16 16 16 15 15 15 14 14 15 14 15 14 14 14 15 14 14 14 14 13 13
18 17 16 15 15 15 15 15 16 17 17 16 17 17 17 17 17 17 16 16 16 16 16 16 15 15 15 15 14 14 15 14 14 14 14 14 14 14 13 14 14 13 13
17 17 17 16 15 15 15 15 14 15 15 16 16 17 16 17 17 17 17 16 16 16 15 15 15 15 15 15 14 14 14 15 14 15 15 14 14 13 13 14 13 13 13
15 16 16 16 16 16 15 14 14 14 14 14 15 16 17 16 16 16 17 16 16 15 15 15 15 15 15 15 15 14 14 15 15 15 15 15 15 13 13 14 13 13 13
15 15 15 15 15 15 15 15 15 14 14 13 14 14 15 16 16 16 16 16 16 16 15 15 15 15 15 15 15 14 14 14 15 15 15 15 14 13 14 14 13 13 13
15 14 15 15 15 15 15 15 15 15 15 14 14 14 14 15 16 15 15 16 16 15 15 15 15 15 14 14 14 14 14 14 15 16 15 15 15 14 14 14 13 13 13
14 14 14 15 15 15 15 15 15 15 16 16 15 14 14 14 15 16 15 15 15 15 15 15 15 15 15 14 14 13 14 14 14 15 15 15 15 14 14 14 14 13 13
14 13 14 14 13 13 14 14 14 15 15 16 16 16 15 14 14 14 15 15 15 15 15 15 15 14 14 14 14 13 14 14 14 15 15 15 15 14 13 13 14 13 13
13 13 13 13 13 13 13 14 14 15 15 15 15 16 16 15 14 14 14 15 15 14 15 15 15 15 14 14 14 14 14 14 14 14 15 14 14 14 13 13 13 14 13
12 12 12 12 12 12 12 13 13 14 15 15 14 14 15 16 15 14 13 14 15 15 14 15 15 15 15 15 14 14 14 14 14 14 14 14 14 14 14 13 13 13 12
10 10 9 10 10 11 11 11 12 13 13 14 14 13 13 15 15 15 14 13 14 15 15 14 15 15 15 15 14 14 13 13 14 14 14 14 13 14 14 14 13 13 12
9 9 9 9 10 10 10 11 11 11 12 11 12 11 11 12 13 12 14 13 13 14 15 15 14 15 15 15 15 14 13 13 13 13 13 13 13 13 13 13 13 13 12
8 7 6 7 7 6 7 7 7 7 8 8 8 9 9 9 10 11 11 13 12 13 14 15 14 14 15 15 14 14 12 12 12 13 13 13 13 13 13 13 13 13 12
6 6 6 6 6 6 5 5 5 6 7 6 5 7 8 8 9 8 9 10 11 12 13 14 15 14 15 15 14 14 12 12 12 12 12 13 13 13 13 13 12 12 12
5 4 5 5 5 4 3 3 3 3 2 3 3 3 5 7 8 8 9 10 10 11 12 13 15 15 15 15 14 14 14 14 13 12 12 12 12 12 12 12 12 12 12
4 4 5 5 4 3 3 2 2 1 0 1 3 3 3 4 7 9 9 10 10 10 12 13 13 14 14 13 15 14 14 13 13 13 12 12 12 12 12 12 12 12 12
3 5 5 5 3 3 2 2 2 -1 -1 0 1 1 2 4 6 8 9 10 11 11 11 12 12 13 15 14 14 14 13 13 13 14 14 11 12 11 12 12 12 12 12

GFSSE_850_temp_153.txt.gz
Temp
20 20 20 21 21 21 21 21 21 21 21 21 20 20 19 19 19 19 18 18 18 17 18 17 17 17 16 16 16 16 17 16 16 15 15 15 15 14 14 14 15 15 14
20 20 20 20 20 20 20 20 21 21 20 20 20 19 19 19 18 18 18 18 18 17 17 17 17 17 16 16 16 17 16 16 15 15 15 15 15 15 14 13 14 14 14
20 20 20 20 20 20 20 20 20 20 20 20 19 19 19 18 18 18 18 18 18 17 16 16 17 17 17 16 16 16 16 15 15 15 15 15 15 14 14 13 14 13 14
19 19 19 18 19 19 19 19 19 20 19 19 19 19 18 18 18 18 18 18 17 17 16 16 16 17 16 16 16 15 15 15 15 15 15 15 15 14 13 13 13 13 14
19 18 19 18 18 18 19 19 19 19 19 19 19 18 18 18 17 17 17 17 17 17 17 16 16 16 16 16 15 15 15 15 15 15 15 15 15 14 14 13 14 14 14
18 17 17 17 17 18 18 18 19 19 19 19 18 18 17 17 17 17 17 17 17 17 17 16 16 15 15 15 15 15 15 15 15 15 14 14 14 14 14 14 14 14 14
17 17 17 17 17 17 17 18 18 18 18 18 18 18 17 17 17 16 16 17 17 17 16 16 16 16 15 15 14 14 15 15 15 15 15 14 14 14 15 14 14 14 14
16 16 16 16 16 16 16 17 17 17 17 17 17 17 17 17 17 16 16 16 16 16 16 16 16 16 15 15 14 15 15 15 15 14 14 14 15 14 15 15 14 14 14
16 16 15 15 15 16 15 15 16 16 16 16 16 16 16 16 16 16 16 16 16 16 16 16 16 16 16 15 14 15 14 14 14 14 14 14 14 15 14 14 13 14 13
17 17 15 15 15 15 15 15 15 15 15 15 16 16 16 16 16 16 16 16 16 16 16 16 16 16 16 15 14 14 15 15 14 14 14 14 14 14 14 14 13 14 13
17 16 15 14 14 15 15 14 14 14 14 14 14 14 15 16 16 15 15 16 16 16 16 16 15 15 15 15 15 14 15 15 14 14 14 14 14 14 14 13 13 13 13
15 15 15 15 15 15 15 14 15 14 14 14 14 14 14 14 15 15 15 15 15 15 16 16 15 15 15 15 15 15 15 14 15 14 14 14 13 14 14 14 13 14 13
14 15 15 15 15 15 16 15 15 15 14 14 13 14 13 14 14 15 15 15 15 15 15 15 15 15 15 15 15 14 14 14 15 14 15 14 13 14 14 14 13 13 13
15 15 15 15 15 15 15 15 15 16 15 15 15 14 13 13 14 14 14 15 14 14 15 15 15 15 15 15 15 15 14 14 15 15 14 14 14 14 14 14 13 13 13
15 15 15 15 15 15 15 15 15 15 16 16 16 16 15 14 13 13 14 14 15 15 14 14 15 15 15 15 15 15 14 14 14 15 14 14 14 14 14 14 13 13 13
14 15 15 15 14 14 14 14 14 15 15 15 16 16 16 15 15 14 13 14 14 15 15 14 14 14 14 14 14 15 14 14 14 14 14 14 13 13 14 13 13 13 13
15 14 14 14 13 14 14 14 14 14 15 15 15 16 16 16 15 15 14 13 13 14 14 14 14 14 14 14 14 14 14 14 14 14 14 14 14 13 13 13 13 13 13
13 14 14 13 13 13 13 13 14 14 14 15 15 15 15 15 15 15 14 14 14 13 14 14 15 14 14 14 14 14 14 14 14 14 14 14 13 14 13 13 13 13 13
13 14 14 13 13 13 13 13 13 13 14 14 14 14 14 14 14 14 14 14 14 13 13 13 14 15 14 14 14 14 14 14 14 14 14 14 14 14 14 13 13 13 13
12 12 12 12 11 11 11 12 12 13 13 12 12 12 11 12 11 12 13 13 13 13 13 13 14 14 14 14 14 14 14 13 13 14 14 14 14 14 14 13 13 12 13
11 12 11 10 11 10 10 11 12 12 13 11 10 9 9 9 9 9 11 11 12 12 12 12 13 14 14 14 14 14 14 13 13 13 13 14 14 14 14 13 13 13 12
9 10 10 10 9 8 8 8 8 8 9 8 8 8 8 8 8 8 9 10 10 11 11 11 12 13 14 15 14 13 12 13 13 13 13 13 13 13 13 13 13 13 13
9 9 9 9 8 7 7 7 8 9 9 8 8 7 6 5 5 6 8 8 9 9 11 10 11 12 13 14 14 14 13 13 12 12 13 13 13 13 13 13 13 12 12
7 7 8 8 7 6 6 6 6 6 5 5 5 6 5 4 3 3 5 7 8 8 9 10 11 12 12 13 14 14 14 14 13 12 12 13 13 13 13 12 12 12 12
6 7 8 7 6 5 5 5 5 6 5 4 3 5 4 3 3 4 4 4 6 6 7 9 10 11 11 12 14 14 13 14 14 13 12 12 13 13 13 13 13 13 12
6 6 6 5 5 5 5 6 6 5 4 3 3 4 4 4 3 3 4 3 4 5 6 8 9 10 11 12 12 13 14 13 14 14 13 13 14 12 12 13 12 12 12

GFSSE_850_temp_159.txt.gz
Temp
18 18 18 18 19 18 18 18 18 18 18 18 18 18 18 18 18 18 18 18 18 18 17 17 17 16 16 16 16 16 16 16 16 16 15 16 14 15 15 15 14 14 14
18 18 18 18 18 18 18 18 18 18 18 18 18 18 18 17 17 17 17 17 17 17 17 17 16 16 16 16 16 16 16 16 16 16 15 16 15 15 14 14 14 14 14
18 17 17 17 17 18 18 18 18 18 18 17 17 17 17 17 17 17 17 17 17 17 17 17 16 16 16 16 16 16 16 15 15 16 15 15 15 14 14 14 14 14 14
17 16 16 16 17 17 17 17 17 17 18 17 17 17 17 17 17 16 16 16 16 16 16 17 16 16 16 16 16 16 16 15 15 15 15 15 15 14 14 13 13 13 13
17 16 16 16 16 16 16 16 16 16 17 17 17 17 17 16 16 16 16 16 16 16 16 16 16 16 16 16 16 16 16 15 15 15 15 15 13 14 14 13 13 13 13
16 14 15 15 16 16 16 16 16 16 16 16 16 16 16 16 16 16 16 16 16 16 16 16 16 16 16 15 16 16 15 15 15 15 15 15 14 14 14 13 13 13 13
15 15 15 15 15 15 15 16 16 16 16 16 16 16 15 15 15 16 15 15 15 15 16 16 16 16 16 15 15 15 15 15 15 15 15 14 14 14 14 13 13 13 13
14 14 14 14 15 15 15 15 15 15 15 16 16 16 16 15 15 15 15 15 15 15 15 15 16 16 15 15 15 15 15 15 14 14 15 14 14 14 14 13 13 13 13
15 15 15 15 15 15 15 15 15 15 15 15 15 15 16 16 16 16 15 15 15 15 15 15 15 15 15 15 15 15 15 15 14 14 14 15 14 14 14 13 13 13 13
15 15 15 14 15 15 15 16 15 15 15 15 14 14 14 15 15 15 15 15 14 15 15 14 15 15 15 15 15 15 15 15 15 14 14 14 14 14 13 13 12 13 13
15 15 15 15 15 15 15 16 16 16 16 15 15 15 14 14 14 15 15 15 15 14 14 15 14 15 15 15 15 15 15 15 15 15 14 14 14 14 13 13 13 13 13
16 16 16 16 16 16 16 16 16 16 16 16 16 16 15 15 15 15 15 15 15 15 14 14 15 14 14 15 15 15 15 15 15 15 15 14 14 14 13 13 12 12 12
15 15 16 16 16 16 16 16 15 16 15 15 15 15 15 15 16 16 15 15 15 15 15 15 14 14 15 14 15 15 15 15 15 15 15 15 14 13 13 13 13 12 12
14 15 15 15 16 16 16 16 15 15 15 15 15 15 15 15 15 15 15 16 15 15 15 15 15 14 14 14 15 15 14 14 15 15 15 15 14 13 13 13 13 12 12
14 14 15 15 15 15 15 15 15 15 15 14 15 15 15 15 15 15 15 15 15 15 14 14 15 15 14 14 15 15 14 14 14 14 15 15 15 14 13 13 12 12 12
13 14 14 14 15 15 15 14 14 14 14 14 14 14 14 15 15 15 15 15 15 15 14 15 14 14 14 14 14 15 14 14 14 14 14 15 14 14 13 13 12 13 12
13 13 13 14 14 14 15 15 14 14 13 13 13 13 14 14 14 14 14 14 14 15 15 14 14 13 13 14 15 14 14 14 14 14 14 14 14 14 14 13 13 12 12
12 13 13 13 13 15 15 14 13 13 13 13 13 12 13 13 12 12 12 12 13 13 14 14 14 12 13 13 14 14 14 14 15 14 14 14 14 14 14 13 13 12 12
11 12 12 13 14 14 13 12 12 12 12 12 12 11 11 11 11 11 11 11 11 12 12 12 13 12 12 12 13 14 14 14 14 15 14 14 14 13 14 13 13 12 12
10 11 11 12 13 12 12 11 11 12 12 12 11 11 11 10 10 10 10 10 10 11 11 11 11 12 11 12 12 13 13 14 14 14 14 14 14 13 14 13 13 12 12
9 10 10 11 11 11 11 11 12 12 12 11 10 10 10 10 9 8 8 8 8 9 10 11 10 10 11 11 11 12 12 13 13 14 14 14 14 13 13 14 13 13 12
9 9 10 10 9 9 9 9 10 11 11 10 10 10 9 8 8 7 7 7 7 8 8 8 8 8 9 10 10 11 11 12 13 14 14 14 14 14 13 14 13 13 13
8 9 9 8 8 8 9 9 10 9 9 9 9 9 8 8 7 7 6 6 6 5 5 6 6 6 7 9 9 10 11 12 13 13 14 14 14 14 14 13 14 14 13
7 7 7 7 7 8 8 8 8 8 8 7 7 7 7 7 6 6 6 6 6 4 3 3 3 3 3 5 9 10 10 11 12 13 12 13 14 14 14 13 14 14 13
6 6 7 7 7 7 7 7 7 7 6 6 6 7 7 7 5 5 5 4 4 4 4 3 3 3 3 3 4 6 9 10 11 11 13 12 12 13 14 14 14 14 14
5 5 6 6 7 7 7 6 6 5 6 6 5 6 6 5 5 4 3 4 4 4 4 4 3 3 3 3 3 4 5 7 10 11 11 13 12 12 13 13 14 14 14

GFSSE_850_temp_165.txt.gz
Temp
17 17 18 18 18 18 18 18 18 18 18 18 18 18 18 17 17 18 17 17 17 17 17 17 16 16 16 16 16 16 16 16 17 17 17 16 16 16 16 15 15 14 14
16 16 17 17 18 18 18 18 18 17 18 18 17 17 17 17 17 17 17 17 17 17 16 16 16 16 16 16 16 16 16 16 16 17 16 16 15 16 15 15 15 14 14
16 16 17 17 17 17 17 17 17 18 18 17 17 17 17 16 16 16 16 16 17 17 16 16 16 16 16 16 16 16 16 16 16 16 16 15 15 15 15 14 14 14 14
16 15 16 16 17 17 17 17 17 17 17 17 17 17 17 17 16 16 16 16 16 16 16 16 16 16 16 16 16 16 16 16 16 16 16 15 15 15 15 14 14 14 13
15 16 16 16 16 16 16 16 17 17 17 17 17 17 17 17 17 16 16 16 16 16 16 16 16 16 16 16 16 16 16 16 16 16 15 15 15 15 15 14 14 13 13
15 16 16 16 16 16 16 16 16 16 16 16 16 17 17 17 16 16 16 16 16 16 16 16 16 15 16 16 16 16 16 16 16 14 15 14 15 14 15 14 13 13 13
15 16 16 16 15 15 15 15 16 16 16 16 16 16 16 16 16 16 16 16 16 16 16 16 16 16 16 15 15 15 15 16 16 14 15 14 15 15 15 14 14 13 13
16 16 16 16 16 16 16 15 15 15 15 15 15 16 16 16 16 16 16 16 16 15 15 15 15 15 16 16 15 15 15 15 15 14 15 15 14 15 15 14 14 13 13
16 16 16 16 16 16 16 16 16 15 15 15 15 15 15 15 15 16 16 16 16 16 16 16 15 15 15 15 16 15 15 15 15 15 15 15 15 15 15 14 14 13 13
16 15 16 16 16 16 16 16 16 16 16 16 16 15 15 14 15 14 14 15 15 15 15 16 16 15 15 15 15 15 15 15 15 14 15 15 14 14 15 14 14 13 13
15 16 16 16 16 16 17 16 16 16 16 16 16 16 16 16 16 15 15 15 15 15 15 15 16 15 15 15 15 15 15 15 14 14 15 15 15 15 14 14 14 14 14
14 16 16 16 16 17 17 16 16 16 16 16 15 15 15 16 16 16 16 16 15 14 14 15 16 15 15 15 15 16 16 14 15 15 15 16 15 15 14 14 14 14 13
13 15 16 16 16 16 16 16 16 16 16 15 15 15 15 15 15 15 16 14 15 14 14 14 14 14 15 15 16 16 16 15 15 16 17 16 16 15 14 14 14 14 13
13 14 16 16 16 16 16 16 16 15 15 15 14 15 15 15 15 15 14 15 15 13 14 13 15 15 16 16 16 16 16 16 16 16 16 16 15 15 14 14 14 13 13
12 13 15 16 16 16 16 16 15 15 14 14 13 14 14 14 14 14 14 14 13 12 12 12 13 15 15 15 15 15 15 15 14 14 15 15 15 15 14 14 14 14 13
11 13 15 15 15 15 15 15 15 15 14 12 10 12 13 13 13 13 12 11 10 10 11 14 13 14 15 15 15 15 14 14 14 14 14 15 15 15 15 14 14 14 13
10 13 14 14 15 15 15 15 15 14 14 11 10 10 13 13 13 12 10 9 9 11 11 9 10 10 11 12 13 15 15 14 14 14 14 14 15 15 15 15 14 13 14
10 11 13 14 14 14 14 14 14 13 12 11 11 10 12 12 12 12 9 8 9 10 8 8 8 9 9 10 11 12 12 13 13 13 13 14 15 16 15 15 15 14 13
9 10 12 13 13 14 14 14 13 11 8 8 7 7 10 11 10 10 7 6 9 7 7 7 7 7 9 9 9 11 12 11 12 13 13 14 13 14 16 15 15 15 14
9 11 12 12 13 13 13 11 8 8 7 7 6 6 8 7 8 8 6 5 6 6 6 6 6 6 7 8 8 9 10 11 11 11 12 13 14 14 14 15 15 14 14
8 8 10 10 12 11 9 9 8 8 8 7 6 7 7 7 6 5 4 4 4 5 6 6 5 6 7 7 6 9 10 12 12 12 12 12 12 13 14 14 13 14 14
7 7 7 8 9 9 8 9 9 8 7 6 6 6 5 7 6 4 5 4 3 6 6 4 5 5 4 4 4 5 10 13 14 14 13 13 13 13 14 14 14 13 14
7 6 6 6 7 9 10 6 6 7 7 7 5 5 4 3 3 3 3 3 5 5 5 5 3 3 3 3 4 4 6 12 8 13 14 14 14 13 13 14 13 13 13
6 5 5 7 6 8 9 6 7 6 6 5 5 4 3 3 3 2 2 2 3 3 4 5 4 3 2 3 3 4 4 4 5 7 10 12 12 12 12 12 13 13 13
6 5 5 5 5 6 7 7 6 5 4 4 4 3 3 3 3 2 1 1 1 2 2 2 3 3 2 2 2 3 3 3 4 5 7 9 11 11 12 12 12 12 13
5 4 4 5 4 5 5 4 4 4 3 3 3 3 3 2 2 2 1 0 0 1 2 2 1 2 2 1 1 2 2 3 3 4 5 7 9 11 12 11 12 13 12

GFSSE_850_temp_168.txt.gz
Temp
17 19 19 19 19 19 18 18 19 18 18 18 18 18 18 17 17 17 17 17 17 17 16 16 16 16 16 17 17 17 17 17 17 17 17 16 16 16 16 16 15 14 14
18 18 18 18 18 18 18 18 18 18 18 18 18 18 17 17 17 17 17 17 17 17 16 16 16 16 16 16 16 16 17 17 17 17 17 16 16 16 16 15 15 14 14
16 16 17 18 18 18 18 18 18 17 17 17 17 17 17 17 17 17 17 17 16 16 16 16 16 16 16 16 16 16 16 17 17 16 16 16 15 15 15 15 15 14 14
16 17 18 17 17 17 17 17 17 17 17 17 17 17 17 17 17 17 17 16 16 16 16 16 16 16 16 15 16 16 16 16 16 16 16 15 15 15 15 15 14 14 14
18 17 17 17 17 17 17 17 17 17 17 17 17 17 17 17 17 16 16 16 16 16 16 16 16 16 16 16 15 15 15 16 16 16 16 15 15 15 15 15 15 14 14
17 17 17 17 17 16 16 17 17 16 16 16 16 17 17 17 17 17 16 16 16 15 16 16 16 16 16 16 16 16 15 15 15 15 15 15 15 15 15 15 15 14 14
17 17 17 17 16 16 16 16 16 16 16 16 16 16 16 16 16 16 16 16 16 16 16 15 15 15 16 16 16 16 16 15 15 15 15 14 15 15 15 15 14 14 14
17 17 17 16 16 16 16 16 16 16 15 15 15 15 15 16 16 16 16 16 16 15 15 15 15 15 15 16 15 16 15 15 15 15 15 15 15 15 15 15 15 14 14
17 17 17 16 16 16 16 16 16 16 16 16 15 15 15 15 15 15 15 15 15 15 15 15 15 15 15 15 15 16 15 15 16 15 15 14 14 14 14 15 15 14 14
16 16 16 16 16 16 16 16 16 16 16 16 16 16 15 14 15 14 14 15 15 15 15 15 15 15 15 15 15 16 16 15 16 15 15 15 15 15 15 15 15 14 14
16 16 16 16 16 16 16 16 16 16 16 16 16 16 15 16 15 15 15 15 15 14 15 15 15 15 15 15 16 16 16 16 16 16 16 15 15 14 14 14 14 14 14
15 16 16 17 16 16 16 16 16 16 16 16 16 15 15 15 15 15 15 15 14 15 15 15 14 15 15 15 15 16 16 16 16 15 15 16 15 15 15 14 14 14 13
14 15 16 16 17 17 16 16 16 16 16 16 16 16 15 15 15 15 15 15 15 15 14 14 14 13 14 14 14 15 15 16 15 16 16 15 15 16 15 15 14 14 13
13 15 16 16 16 16 16 16 16 16 16 15 15 15 15 14 14 14 14 14 14 13 13 13 14 14 14 14 14 15 15 14 15 15 16 16 16 15 15 14 14 14 13
13 13 15 16 16 16 16 16 16 16 16 15 14 15 14 13 14 13 13 12 11 11 11 14 14 14 15 16 16 15 15 16 16 16 15 15 15 15 15 15 14 14 14
12 13 15 16 16 16 16 16 15 16 15 15 14 14 14 12 12 12 12 10 9 10 11 11 11 11 13 13 15 15 15 15 15 15 15 14 15 14 15 15 15 15 14
12 12 14 15 15 15 15 15 15 15 14 13 13 12 13 11 11 11 11 9 8 10 9 8 9 10 11 12 13 13 12 14 15 14 14 14 14 14 14 15 15 15 15
11 10 13 14 15 14 14 15 14 14 13 13 13 11 12 11 11 11 11 9 9 9 7 7 7 9 10 11 12 12 13 12 12 14 14 14 14 14 14 14 14 15 15
10 10 10 13 14 14 14 14 13 12 11 11 10 10 11 11 11 11 10 8 9 9 7 7 8 8 10 10 10 10 12 12 12 12 12 13 13 14 14 14 14 14 14
10 9 11 11 13 13 13 11 9 9 9 8 8 8 9 10 10 9 8 8 8 8 8 7 6 8 8 7 9 10 12 13 13 13 12 13 14 13 13 14 14 14 14
9 9 10 11 12 12 11 11 11 10 9 7 7 7 6 8 8 8 7 7 7 7 7 5 5 7 8 7 6 9 13 13 13 12 11 12 13 13 13 13 13 14 14
8 8 8 8 10 11 11 11 10 10 9 8 7 6 5 7 7 7 6 5 5 7 7 6 4 3 4 4 3 3 6 11 11 12 12 12 11 12 13 13 13 13 13
8 7 7 7 7 10 10 7 9 8 8 8 7 5 6 5 4 4 4 4 3 3 4 3 2 2 2 4 2 3 4 5 4 10 13 12 11 12 11 11 12 13 13
8 7 7 6 6 9 9 8 8 6 6 6 5 5 5 4 4 3 3 3 3 1 2 2 1 1 1 1 1 2 3 3 3 4 4 9 10 10 11 11 12 12 12
7 6 5 5 6 7 8 8 7 7 6 5 4 5 4 4 3 2 2 2 1 1 1 3 2 1 1 1 1 1 1 1 2 3 3 4 5 7 9 10 10 11 12
7 5 5 5 5 6 7 7 7 6 6 5 4 4 3 3 2 2 1 1 1 1 1 0 -0 -0 -0 0 0 0 0 1 1 2 2 3 3 4 5 9 9 9 10

GFSSE_850_temp_171.txt.gz
Temp
18 18 19 19 19 19 19 19 19 19 19 18 18 18 18 18 18 18 17 17 17 17 17 17 16 16 16 16 16 16 16 16 16 17 17 16 16 15 16 16 16 15 15
18 18 18 18 19 19 19 19 19 18 18 18 18 18 17 17 17 17 17 17 17 17 17 17 16 16 16 16 16 16 16 16 16 16 16 15 16 15 15 15 15 15 15
18 18 18 18 18 18 18 18 18 18 18 18 18 18 17 17 17 17 17 17 17 17 16 16 16 16 16 16 16 16 16 16 16 16 15 15 15 15 15 15 15 15 14
18 18 18 18 17 17 18 18 18 17 17 17 17 17 17 17 17 17 16 16 16 16 16 16 16 16 16 16 16 16 16 16 16 16 15 15 15 15 15 15 15 15 14
17 17 18 17 17 17 17 17 17 17 17 17 17 17 17 17 17 17 16 16 16 16 16 16 16 16 16 16 16 16 16 16 16 16 15 15 14 15 15 15 15 15 14
17 17 17 17 17 16 16 16 16 16 16 16 16 17 16 16 16 16 16 16 16 16 16 16 16 16 16 16 16 16 16 15 16 16 15 14 14 15 15 14 15 15 14
17 18 18 18 17 16 16 15 15 15 15 15 16 15 16 16 16 16 16 16 15 15 15 15 15 15 16 16 15 16 15 15 15 15 15 14 14 14 14 14 15 15 14
17 18 18 17 16 16 16 15 15 15 15 15 15 15 15 15 15 15 15 15 16 16 15 15 15 15 15 15 16 16 15 15 16 16 15 14 14 14 14 14 15 14 14
17 17 17 16 16 16 16 16 16 16 16 16 16 15 15 14 14 14 14 15 15 15 15 15 15 15 15 15 15 16 16 15 16 16 16 15 15 14 14 15 14 14 14
16 17 17 16 16 16 16 16 16 16 16 16 16 15 15 15 14 14 14 14 14 14 14 15 15 15 15 15 15 15 15 15 16 16 16 16 15 15 14 14 14 14 13
16 17 17 17 17 17 17 17 17 17 16 16 16 15 15 15 15 15 14 14 14 14 14 13 14 13 14 15 15 15 15 15 16 16 16 15 16 15 15 14 14 14 14
16 17 17 17 17 17 17 17 17 16 16 16 16 16 15 15 15 15 14 15 14 14 14 14 13 13 13 13 14 15 14 15 16 15 15 16 15 14 14 15 14 14 14
16 17 17 16 17 17 17 16 16 16 16 16 16 16 15 15 15 15 14 14 14 14 14 14 14 13 14 13 13 14 14 14 15 15 15 15 15 15 15 14 14 14 14
16 16 16 16 16 16 16 16 16 16 16 16 16 16 15 15 15 14 14 14 13 13 14 13 13 14 14 14 14 14 14 14 14 14 14 14 15 15 15 14 14 14 14
15 15 15 16 16 16 16 16 16 16 16 15 15 16 15 15 14 14 13 13 13 13 12 12 13 13 14 14 14 14 15 15 14 14 14 15 15 15 14 14 14 14 14
15 15 15 15 15 16 16 16 16 15 15 15 14 15 14 15 14 13 12 12 12 11 11 11 11 13 13 14 14 14 14 15 15 15 14 14 14 14 14 14 14 14 14
14 14 14 14 15 15 15 15 15 15 15 14 14 14 13 13 13 12 11 11 11 10 10 11 11 11 12 12 13 13 13 14 14 15 15 14 14 14 14 13 14 14 14
14 14 13 14 14 15 14 14 14 14 13 12 13 13 13 12 12 12 12 11 11 10 10 10 10 11 11 11 12 13 13 13 14 14 14 14 15 15 14 14 14 14 13
13 12 11 12 13 14 14 13 13 13 12 12 12 11 12 11 11 11 11 11 10 10 10 9 10 10 10 10 11 12 13 13 13 13 13 13 13 13 13 14 13 14 14
12 11 11 11 12 12 12 13 11 10 10 10 10 10 10 10 10 10 10 10 10 10 10 10 9 9 9 8 9 11 12 13 12 11 11 11 11 12 12 12 13 13 13
12 11 10 9 10 10 10 11 10 10 9 8 8 9 9 9 9 8 9 9 9 9 8 8 8 8 9 6 7 10 12 11 11 10 9 10 10 11 11 11 11 12 13
12 11 9 8 8 9 9 10 10 9 7 7 7 7 7 8 7 7 8 8 8 8 8 7 6 6 6 3 1 2 4 9 9 11 11 10 10 10 10 11 11 11 11
11 10 8 7 8 8 8 9 8 8 7 7 7 7 6 6 5 5 6 6 6 6 6 6 5 2 1 3 1 1 2 3 2 6 10 10 10 10 11 11 11 11 10
10 9 8 7 7 7 8 8 8 8 8 7 6 5 5 4 4 4 4 4 4 4 5 5 4 1 -1 -0 -0 0 0 0 1 2 2 3 3 6 8 10 10 11 10
9 8 8 7 7 6 7 7 8 7 6 5 5 5 4 4 3 3 3 4 4 4 4 4 3 1 -1 -1 -1 -1 -1 -0 -0 1 1 1 2 2 3 5 8 9 10
8 8 8 6 6 6 6 6 6 6 5 5 5 5 4 4 3 2 3 3 2 2 2 1 0 -1 -2 -1 -2 -1 -1 -1 -1 -1 -0 -0 -0 1 1 2 5 6 8

GFSSE_850_temp_174.txt.gz
Temp
18 18 18 19 19 19 19 19 19 19 19 19 19 18 18 18 17 17 17 17 17 17 17 17 16 16 16 16 16 15 16 15 16 16 16 16 15 15 16 16 16 15 15
18 18 18 18 19 19 18 18 18 18 18 18 18 18 18 18 18 17 17 17 17 17 17 17 16 16 16 16 16 16 16 16 16 16 15 15 15 15 15 15 15 15 15
18 18 18 18 18 18 18 18 18 18 18 18 18 17 17 17 17 17 17 17 16 16 16 17 16 16 16 16 16 16 16 16 16 16 15 15 15 15 15 15 15 15 15
19 18 18 18 17 17 17 17 17 17 17 17 17 17 17 17 17 17 16 16 16 16 16 16 16 16 16 16 16 16 16 16 16 15 15 15 15 14 14 15 15 15 14
18 18 17 17 17 17 17 17 16 16 16 16 16 16 16 17 17 16 16 16 16 16 16 16 16 16 16 16 16 16 16 16 16 15 15 15 15 15 14 14 15 15 14
18 17 17 17 16 16 16 16 16 16 16 16 16 16 16 16 16 16 16 16 15 15 15 15 15 15 15 16 16 15 16 16 16 15 15 15 15 14 14 14 14 15 15
18 18 17 16 15 16 16 15 15 15 15 15 15 15 15 15 15 15 15 15 15 15 15 15 15 15 15 15 15 15 15 16 16 16 15 15 15 14 14 14 15 14 14
17 17 16 15 16 16 16 15 15 15 15 15 15 15 14 15 14 14 14 14 14 14 14 14 14 14 15 15 15 15 15 15 16 16 15 15 15 15 15 15 14 15 14
16 16 16 16 16 16 16 16 16 16 16 16 16 15 15 15 14 14 14 14 14 14 14 13 13 14 14 14 14 14 15 15 15 15 15 15 15 15 15 15 15 14 14
15 15 16 16 16 16 16 16 17 17 17 16 16 16 15 15 15 15 15 15 14 14 14 13 14 13 13 13 14 14 14 14 15 15 15 15 15 15 14 15 15 14 14
15 16 16 16 16 17 17 17 17 17 16 16 16 16 16 15 15 15 15 14 14 14 14 14 14 13 12 13 13 14 14 14 15 15 15 15 15 14 14 14 14 14 14
16 16 16 16 17 17 17 16 16 17 17 16 16 16 16 15 15 15 15 15 14 14 14 14 14 13 13 13 13 14 13 14 15 15 16 15 15 14 14 14 14 14 14
16 16 16 16 16 16 17 16 16 16 17 16 16 16 16 15 15 15 15 15 15 15 14 15 14 14 13 13 14 13 13 13 13 15 16 15 14 14 14 14 14 14 14
16 16 16 16 16 16 16 16 16 16 16 16 16 16 15 15 14 14 15 14 14 14 14 14 14 14 14 14 14 14 14 14 14 14 14 14 14 15 14 14 14 13 13
16 16 16 16 16 16 16 16 16 16 16 16 15 15 15 15 14 14 14 14 14 14 14 14 14 14 14 14 14 14 14 14 14 14 14 14 14 14 15 14 14 14 14
15 15 15 15 15 15 15 15 15 15 15 15 15 15 14 14 13 13 13 13 13 13 13 13 13 13 13 13 14 14 14 14 14 14 14 14 14 14 15 14 14 13 14
15 15 15 14 14 14 14 14 14 14 15 14 14 14 14 13 13 13 13 12 12 12 12 12 12 12 12 13 13 13 14 14 14 13 13 13 13 13 14 13 13 13 13
15 15 15 14 13 13 13 12 13 13 14 14 13 13 12 12 12 12 12 12 11 11 11 11 12 12 12 12 13 13 14 13 13 14 13 13 12 12 12 13 13 13 12
14 14 14 14 13 12 12 11 11 11 12 12 12 11 11 11 11 11 11 11 10 11 11 11 11 11 11 12 12 13 13 13 13 13 13 12 11 11 12 11 11 12 13
14 14 14 13 12 11 10 10 9 9 10 10 11 10 10 10 10 10 10 10 10 10 10 10 10 10 10 10 11 12 13 12 11 11 10 10 10 10 10 10 10 11 11
13 14 14 13 12 11 10 9 9 9 9 9 9 9 9 9 10 9 9 9 9 9 8 8 9 9 9 9 10 12 12 11 10 9 9 9 9 9 9 9 9 10 10
14 13 13 12 12 12 11 9 8 8 7 7 7 7 7 8 8 8 8 8 8 8 8 8 8 8 7 6 4 5 5 8 9 9 10 8 9 9 9 9 9 10 10
12 12 12 11 11 11 10 9 8 7 6 6 6 6 6 6 6 6 7 7 6 7 7 6 6 5 5 3 1 -0 -0 1 0 5 7 7 7 9 9 9 9 9 9
11 11 11 10 9 9 9 9 7 7 6 6 6 5 5 5 6 6 6 6 6 6 6 5 5 3 -1 0 1 -1 -1 -1 -0 -0 1 2 1 5 6 7 9 10 9
10 10 9 9 8 8 8 8 7 7 6 6 5 5 5 5 5 5 5 5 5 5 4 4 4 3 0 -2 -2 -2 -2 -2 -2 -2 -2 -1 1 0 -0 0 4 7 7
8 8 8 8 8 7 7 7 7 6 6 6 5 5 5 4 4 4 4 4 3 3 3 3 3 1 -2 -2 -3 -3 -2 -3 -3 -3 -2 -2 -2 -1 -1 -1 -1 0 3